TITAN 3A TRANSTAGE R/B, 1359

Orbit data source: Space-Track

TITAN 3A TRANSTAGE R/B, 1359 is space debris in LEO originally from a launch on Thu, 06 May 1965 UTC via a TITAN IIIA launch vehicle from the Air Force Eastern Test Range (AFETR). Debris objects in space refer to the collection of defunct objects orbiting the Earth. Examples of debris include non-operational satellites, rocket bodies, and fragments generated from explosions, collisions, or faulty payload assembly.

Loading next visibility...
Identifier
1359, 1965-034A
Orbit
LEO
Country
Flag of USUS
Related business
Manufacturer
Martin Marietta
Mission
Spacecraft
Bus & Motor
Unknown
Mass
2,302 kg wet, 124 kg dry
Launch date (UTC)
1965-05-06 (60 years ago)
Launch vehicle
TITAN IIIA
Launch site
Air Force Eastern Test Range (AFETR)
Object type
Payload
Rocket body
Debris
Shape & HBR
Unknown
Radar Cross Section
Large (>1 m²)

Expand to show TLE details & history
Last TLE update: 14 hours ago

TLE from 14 hours ago
0 TITAN 3A TRANSTAGE R/B
1 01359U 65034A   25292.66538674 -.00000006  00000-0 -26951-2 0  9994
2 01359  32.1311  12.1518 0495204  15.2812 346.2059  9.17133247 26578
Epoch: 2025-10-19T15:58Z
TLE epoch observation values (Epoch: 2025-10-19T15:58:09.414Z)
Latitude
-0.00002°
Longitude
104.23376°
Altitude
2,799.54 km
Speed
6.748 km/s
True Right ascension
00h 48m 36s
True Declination
0° 00' 00"
Sunlit
Object was in full shadow at epoch
Visualization orbit readout
Latitude
Unknown
Longitude
Unknown
Altitude
Unknown
Speed
Unknown
Apparent Right ascension
Unknown
Apparent Declination
Unknown
Sunlit
N/A
Visualization observer readout
Local Sidereal Time
01:13:38
Azimuth
Unknown
Elevation
Unknown
Doppler factor
Unknown
Orbital elements
Apogee altitude
3,742.867 km
Perigee altitude
2,787.772 km
Semi-major axis
9,643.457 km
Eccentricity
0.04952
Inclination
32.1311°
RAAN
12.1518°
Arg. of periapsis
15.2812°
True anomaly
344.76673°
Mean anomaly
346.2059°
Eccentric anomaly
345.49527°
Mean motion
2.29189 °/min
Orbital period
157.08 mins
BSTAR
-0.0026951
Loading maneuver chart data...
Computing Atmospheric mass density...
Loading historical data...
Loading historical data...
Loading historical data...
Loading historical data...
Loading historical data...
Loading historical data...
Loading historical data...
Other satellites on launch #34 in the year 1965 (1965-05-06 UTC)

Documentation

Showing up to 5 results
|